{"data":{"norad_id":59762,"epoch":"2026-09-21T09:29:44.237760Z","epoch_age_seconds":93876,"freshness":"FRESH","line1":"1 59762U 24091K   26264.39565090  .00001280  00000+0  15413-4 0  9990","line2":"2 59762  53.1594 321.3226 0000786  80.8414 279.2693 15.69714155136252","mean_motion":15.69714155,"eccentricity":7.86e-5,"inclination_deg":53.1594,"raan_deg":321.3226,"arg_perigee_deg":80.8414,"mean_anomaly_deg":279.2693,"bstar":1.5413e-5,"rev_number":13625,"period_min":91.736447391595,"perigee_km":359.18526527023,"apogee_km":360.24445558269,"semimajor_km":6737.8518604265,"source":"CELESTRAK","updated_at":"2026-09-22T09:00:49.068875Z"}}